Time,TemperatureF,DewpointF,PressureIn,WindDirection,WindDirectionDegrees,WindSpeedMPH,WindSpeedGustMPH,Humidity,HourlyPrecipIn,Conditions,Clouds,dailyrainin,SolarRadiationWatts/m^2,SoftwareType,DateUTC
2013-09-23 00:02:00,46.0,45.0,-100.00,NW,309,2.0,4.0,95,0.00,,,0.17,0.000000,,2013-09-23 06:02:00,
2013-09-23 00:12:00,46.0,45.0,-100.00,NW,309,2.0,4.0,95,0.00,,,0.17,0.000000,,2013-09-23 06:12:00,
2013-09-23 00:42:00,45.0,44.0,-100.00,West,260,1.0,3.0,96,0.00,,,0.17,0.000000,,2013-09-23 06:42:00,
2013-09-23 00:52:00,45.0,44.0,-100.00,West,260,1.0,3.0,96,0.00,,,0.17,0.000000,,2013-09-23 06:52:00,
2013-09-23 01:01:00,45.0,44.0,-100.00,West,260,1.0,3.0,96,0.00,,,0.17,0.000000,,2013-09-23 07:01:00,
2013-09-23 01:11:00,45.0,44.0,-100.00,West,260,1.0,3.0,96,0.00,,,0.17,0.000000,,2013-09-23 07:11:00,
2013-09-23 01:42:00,46.0,43.0,-100.00,WSW,258,3.0,6.0,90,0.00,,,0.17,0.000000,,2013-09-23 07:42:00,
2013-09-23 01:52:00,46.0,43.0,-100.00,WSW,258,3.0,6.0,90,0.00,,,0.17,0.000000,,2013-09-23 07:52:00,
2013-09-23 02:02:00,46.0,43.0,-100.00,WSW,258,3.0,6.0,90,0.00,,,0.17,0.000000,,2013-09-23 08:02:00,
2013-09-23 02:11:00,46.0,43.0,-100.00,WSW,258,3.0,6.0,90,0.00,,,0.17,0.000000,,2013-09-23 08:11:00,
2013-09-23 02:42:00,46.0,42.0,-100.00,WNW,282,4.0,9.0,86,0.00,,,-99.99,0.000000,,2013-09-23 08:42:00,
2013-09-23 02:52:00,46.0,42.0,-100.00,WNW,282,4.0,9.0,86,0.00,,,-99.99,0.000000,,2013-09-23 08:52:00,
2013-09-23 03:02:00,46.0,42.0,-100.00,WNW,282,4.0,9.0,86,0.00,,,-99.99,0.000000,,2013-09-23 09:02:00,
2013-09-23 03:11:00,46.0,42.0,-100.00,WNW,282,4.0,9.0,86,0.00,,,-99.99,0.000000,,2013-09-23 09:11:00,
2013-09-23 03:43:00,47.0,42.0,-100.00,WSW,258,4.0,9.0,83,0.02,,,0.19,0.000000,,2013-09-23 09:43:00,
2013-09-23 03:53:00,47.0,42.0,-100.00,WSW,258,4.0,9.0,83,0.02,,,0.19,0.000000,,2013-09-23 09:53:00,
2013-09-23 04:03:00,47.0,42.0,-100.00,WSW,258,4.0,9.0,83,0.02,,,0.19,0.000000,,2013-09-23 10:03:00,
2013-09-23 04:12:00,47.0,42.0,-100.00,WSW,258,4.0,9.0,83,0.02,,,0.19,0.000000,,2013-09-23 10:12:00,
2013-09-23 04:42:00,44.0,43.0,-100.00,West,281,2.0,9.0,96,0.01,,,0.20,0.000000,,2013-09-23 10:42:00,
2013-09-23 04:52:00,44.0,43.0,-100.00,West,281,2.0,9.0,96,0.01,,,0.20,0.000000,,2013-09-23 10:52:00,
2013-09-23 05:02:00,44.0,43.0,-100.00,West,281,2.0,9.0,96,0.01,,,0.20,0.000000,,2013-09-23 11:02:00,
2013-09-23 05:12:00,44.0,43.0,-100.00,West,281,2.0,9.0,96,0.01,,,0.20,0.000000,,2013-09-23 11:12:00,
2013-09-23 05:42:00,44.0,43.0,-100.00,WNW,293,3.0,6.0,96,0.03,,,0.23,0.000000,,2013-09-23 11:42:00,
2013-09-23 05:52:00,44.0,43.0,-100.00,WNW,293,3.0,6.0,96,0.03,,,0.23,0.000000,,2013-09-23 11:52:00,
2013-09-23 06:01:00,44.0,43.0,-100.00,WNW,293,3.0,6.0,96,0.03,,,0.23,0.000000,,2013-09-23 12:01:00,
2013-09-23 06:11:00,44.0,43.0,-100.00,WNW,293,3.0,6.0,96,0.03,,,0.23,0.000000,,2013-09-23 12:11:00,
2013-09-23 06:42:00,44.0,43.0,-100.00,NW,304,3.0,7.0,96,0.05,,,0.28,0.000000,,2013-09-23 12:42:00,
2013-09-23 06:52:00,44.0,43.0,-100.00,NW,304,3.0,7.0,96,0.05,,,0.28,0.000000,,2013-09-23 12:52:00,
2013-09-23 07:01:00,44.0,43.0,-100.00,NW,304,3.0,7.0,96,0.05,,,0.28,0.000000,,2013-09-23 13:01:00,
2013-09-23 07:11:00,44.0,43.0,-100.00,NW,304,3.0,7.0,96,0.05,,,0.28,0.000000,,2013-09-23 13:11:00,
2013-09-23 07:42:00,42.0,41.0,-100.00,WSW,238,1.0,2.0,97,0.00,,,0.28,0.000000,,2013-09-23 13:42:00,
2013-09-23 07:52:00,42.0,41.0,-100.00,WSW,238,1.0,2.0,97,0.00,,,0.28,0.000000,,2013-09-23 13:52:00,
2013-09-23 08:01:00,42.0,41.0,-100.00,WSW,238,1.0,2.0,97,0.00,,,0.28,0.000000,,2013-09-23 14:01:00,
2013-09-23 08:11:00,42.0,41.0,-100.00,WSW,238,1.0,2.0,97,0.00,,,0.28,0.000000,,2013-09-23 14:11:00,
2013-09-23 08:43:00,42.0,41.0,-100.00,SSW,195,0.0,3.0,98,0.04,,,0.32,0.000000,,2013-09-23 14:43:00,
2013-09-23 08:52:00,42.0,41.0,-100.00,SSW,195,0.0,3.0,98,0.04,,,0.32,0.000000,,2013-09-23 14:52:00,
2013-09-23 09:02:00,42.0,41.0,-100.00,SSW,195,0.0,3.0,98,0.04,,,0.32,0.000000,,2013-09-23 15:02:00,
2013-09-23 09:11:00,42.0,41.0,-100.00,SSW,195,0.0,3.0,98,0.04,,,0.32,0.000000,,2013-09-23 15:11:00,
2013-09-23 09:43:00,42.0,41.0,-100.00,WNW,292,1.0,3.0,98,0.03,,,0.35,5.000000,,2013-09-23 15:43:00,
2013-09-23 09:54:00,42.0,41.0,-100.00,WNW,292,1.0,3.0,98,0.03,,,0.35,5.000000,,2013-09-23 15:54:00,
2013-09-23 10:03:00,42.0,41.0,-100.00,WNW,292,1.0,3.0,98,0.03,,,0.35,5.000000,,2013-09-23 16:03:00,
2013-09-23 10:12:00,42.0,41.0,-100.00,WNW,292,1.0,3.0,98,0.03,,,0.35,5.000000,,2013-09-23 16:12:00,
2013-09-23 10:43:00,44.0,43.0,-100.00,SE,140,0.0,0.0,98,0.00,,,0.34,52.000000,,2013-09-23 16:43:00,
2013-09-23 10:53:00,44.0,43.0,-100.00,SE,140,0.0,0.0,98,0.00,,,0.34,52.000000,,2013-09-23 16:53:00,
2013-09-23 11:03:00,44.0,43.0,-100.00,SE,140,0.0,0.0,98,0.00,,,0.34,52.000000,,2013-09-23 17:03:00,
2013-09-23 11:12:00,44.0,43.0,-100.00,SE,140,0.0,0.0,98,0.00,,,0.34,52.000000,,2013-09-23 17:12:00,
2013-09-23 11:42:00,45.0,42.0,-100.00,West,278,4.0,9.0,89,0.00,,,0.27,100.000000,,2013-09-23 17:42:00,
2013-09-23 11:52:00,45.0,42.0,-100.00,West,278,4.0,9.0,89,0.00,,,0.27,100.000000,,2013-09-23 17:52:00,
2013-09-23 12:02:00,45.0,42.0,-100.00,West,278,4.0,9.0,89,0.00,,,0.27,100.000000,,2013-09-23 18:02:00,
2013-09-23 12:12:00,45.0,42.0,-100.00,West,278,4.0,9.0,89,0.00,,,0.27,100.000000,,2013-09-23 18:12:00,
2013-09-23 12:42:00,49.0,40.0,-100.00,NE,37,3.0,7.0,70,0.00,,,0.23,278.000000,,2013-09-23 18:42:00,
2013-09-23 12:52:00,49.0,40.0,-100.00,NE,37,3.0,7.0,70,0.00,,,0.23,278.000000,,2013-09-23 18:52:00,
2013-09-23 13:02:00,49.0,40.0,-100.00,NE,37,3.0,7.0,70,0.00,,,0.23,278.000000,,2013-09-23 19:02:00,
2013-09-23 13:12:00,49.0,40.0,-100.00,NE,37,3.0,7.0,70,0.00,,,0.23,278.000000,,2013-09-23 19:12:00,
2013-09-23 13:42:00,56.0,40.0,-100.00,East,81,3.0,5.0,54,0.00,,,0.23,495.000000,,2013-09-23 19:42:00,
2013-09-23 13:53:00,56.0,40.0,-100.00,East,81,3.0,5.0,54,0.00,,,0.23,495.000000,,2013-09-23 19:53:00,
2013-09-23 14:02:00,56.0,40.0,-100.00,East,81,3.0,5.0,54,0.00,,,0.23,495.000000,,2013-09-23 20:02:00,
2013-09-23 14:12:00,56.0,40.0,-100.00,East,81,3.0,5.0,54,0.00,,,0.23,495.000000,,2013-09-23 20:12:00,
2013-09-23 14:42:00,56.0,37.0,-100.00,SSW,211,3.0,9.0,48,0.00,,,0.23,705.000000,,2013-09-23 20:42:00,
2013-09-23 14:52:00,56.0,37.0,-100.00,SSW,211,3.0,9.0,48,0.00,,,0.23,705.000000,,2013-09-23 20:52:00,
2013-09-23 15:02:00,56.0,37.0,-100.00,SSW,211,3.0,9.0,48,0.00,,,0.23,705.000000,,2013-09-23 21:02:00,
2013-09-23 15:11:00,56.0,37.0,-100.00,SSW,211,3.0,9.0,48,0.00,,,0.23,705.000000,,2013-09-23 21:11:00,
2013-09-23 15:44:00,58.0,33.0,-100.00,South,172,5.0,14.0,38,0.00,,,0.23,489.000000,,2013-09-23 21:44:00,
2013-09-23 15:54:00,58.0,33.0,-100.00,South,172,5.0,14.0,38,0.00,,,0.23,489.000000,,2013-09-23 21:54:00,
2013-09-23 16:03:00,58.0,33.0,-100.00,South,172,5.0,14.0,38,0.00,,,0.23,489.000000,,2013-09-23 22:03:00,
2013-09-23 16:13:00,58.0,33.0,-100.00,South,172,5.0,14.0,38,0.00,,,0.23,489.000000,,2013-09-23 22:13:00,
2013-09-23 16:43:00,62.0,34.0,-100.00,WSW,251,4.0,10.0,35,0.00,,,0.22,609.000000,,2013-09-23 22:43:00,
2013-09-23 16:54:00,62.0,34.0,-100.00,WSW,251,4.0,10.0,35,0.00,,,0.22,609.000000,,2013-09-23 22:54:00,
2013-09-23 17:02:00,62.0,34.0,-100.00,WSW,251,4.0,10.0,35,0.00,,,0.22,609.000000,,2013-09-23 23:02:00,
2013-09-23 17:12:00,62.0,34.0,-100.00,WSW,251,4.0,10.0,35,0.00,,,0.22,609.000000,,2013-09-23 23:12:00,
2013-09-23 17:42:00,64.0,34.0,-100.00,NNW,348,5.0,15.0,32,0.00,,,0.19,627.000000,,2013-09-23 23:42:00,
2013-09-23 17:54:00,64.0,34.0,-100.00,NNW,348,5.0,15.0,32,0.00,,,0.19,627.000000,,2013-09-23 23:54:00,
2013-09-23 18:01:00,64.0,34.0,-100.00,NNW,348,5.0,15.0,32,0.00,,,0.19,627.000000,,2013-09-24 00:01:00,
2013-09-23 18:11:00,64.0,34.0,-100.00,NNW,348,5.0,15.0,32,0.00,,,0.19,627.000000,,2013-09-24 00:11:00,
2013-09-23 18:43:00,64.0,35.0,-100.00,SW,220,5.0,10.0,34,0.00,,,0.19,440.000000,,2013-09-24 00:43:00,
2013-09-23 18:52:00,64.0,35.0,-100.00,SW,220,5.0,10.0,34,0.00,,,0.19,440.000000,,2013-09-24 00:52:00,
2013-09-23 19:01:00,64.0,35.0,-100.00,SW,220,5.0,10.0,34,0.00,,,0.19,440.000000,,2013-09-24 01:01:00,
2013-09-23 19:11:00,64.0,35.0,-100.00,SW,220,5.0,10.0,34,0.00,,,0.19,440.000000,,2013-09-24 01:11:00,
2013-09-23 19:43:00,60.0,34.0,-100.00,SW,235,4.0,10.0,37,0.00,,,0.19,202.000000,,2013-09-24 01:43:00,
2013-09-23 19:52:00,60.0,34.0,-100.00,SW,235,4.0,10.0,37,0.00,,,0.19,202.000000,,2013-09-24 01:52:00,
2013-09-23 20:02:00,60.0,34.0,-100.00,SW,235,4.0,10.0,37,0.00,,,0.19,202.000000,,2013-09-24 02:02:00,
2013-09-23 20:12:00,60.0,34.0,-100.00,SW,235,4.0,10.0,37,0.00,,,0.19,202.000000,,2013-09-24 02:12:00,
2013-09-23 20:42:00,55.0,38.0,-100.00,North,349,1.0,7.0,53,0.00,,,0.19,48.000000,,2013-09-24 02:42:00,
2013-09-23 20:52:00,55.0,38.0,-100.00,North,349,1.0,7.0,53,0.00,,,0.19,48.000000,,2013-09-24 02:52:00,
2013-09-23 21:02:00,55.0,38.0,-100.00,North,349,1.0,7.0,53,0.00,,,0.19,48.000000,,2013-09-24 03:02:00,
2013-09-23 21:12:00,55.0,38.0,-100.00,North,349,1.0,7.0,53,0.00,,,0.19,48.000000,,2013-09-24 03:12:00,
2013-09-23 21:14:00,50.0,40.0,-100.00,North,2,1.0,4.0,69,0.00,,,0.19,2.000000,,2013-09-24 03:14:00,
2013-09-23 21:45:00,50.0,40.0,-100.00,North,2,1.0,4.0,69,0.00,,,0.19,2.000000,,2013-09-24 03:45:00,
2013-09-23 21:54:00,50.0,40.0,-100.00,North,2,1.0,4.0,69,0.00,,,0.19,2.000000,,2013-09-24 03:54:00,
2013-09-23 22:04:00,50.0,40.0,-100.00,North,2,1.0,4.0,69,0.00,,,0.19,2.000000,,2013-09-24 04:04:00,
2013-09-23 22:44:00,47.0,38.0,-100.00,WNW,303,1.0,2.0,71,0.00,,,0.18,0.000000,,2013-09-24 04:44:00,
2013-09-23 22:54:00,47.0,38.0,-100.00,WNW,303,1.0,2.0,71,0.00,,,0.18,0.000000,,2013-09-24 04:54:00,
2013-09-23 23:03:00,47.0,38.0,-100.00,WNW,303,1.0,2.0,71,0.00,,,0.18,0.000000,,2013-09-24 05:03:00,
2013-09-23 23:13:00,47.0,38.0,-100.00,WNW,303,1.0,2.0,71,0.00,,,0.18,0.000000,,2013-09-24 05:13:00,
2013-09-23 23:43:00,44.0,38.0,-100.00,NE,38,0.0,3.0,80,0.00,,,0.18,0.000000,,2013-09-24 05:43:00,
2013-09-23 23:53:00,44.0,38.0,-100.00,NE,38,0.0,3.0,80,0.00,,,0.18,0.000000,,2013-09-24 05:53:00,